This is the latest recevied weather packets stored in our database for station/object KE8WAY. If no packets are shown the sender has not sent any weather packets the latest 10 day(s).
| Time | Temp. | Humidity | Pressure | Rain* | Wind** | Luminosity | Snow |
|---|---|---|---|---|---|---|---|
| 1778122326 | 10° C | 67% | 1013 hPa | 0 mm | - | 0 W/m² | - |
| 1778122024 | 10° C | 64% | 1013 hPa | 0 mm | - | 0 W/m² | - |
| 1778121721 | 10° C | 66% | 1012.9 hPa | 0 mm | - | 0 W/m² | - |
| 1778121416 | 10° C | 65% | 1012.8 hPa | 0 mm | - | 0 W/m² | - |
| 1778121114 | 10° C | 63% | 1012.7 hPa | 0 mm | - | 0 W/m² | - |
| 1778120811 | 10° C | 62% | 1012.9 hPa | 0 mm | - | 0 W/m² | - |
| 1778120507 | 10° C | 64% | 1013 hPa | 0 mm | - | 0 W/m² | - |
| 1778120203 | 10° C | 62% | 1012.8 hPa | 0 mm | - | 0 W/m² | - |
| 1778119898 | 10.56° C | 62% | 1012.9 hPa | 0 mm | - | 0 W/m² | - |
| 1778119597 | 10.56° C | 62% | 1012.9 hPa | 0 mm | - | 0 W/m² | - |
| 1778119293 | 10.56° C | 60% | 1012.8 hPa | 0 mm | - | 0 W/m² | - |
| 1778118992 | 10° C | 64% | 1012.5 hPa | 0 mm | - | 0 W/m² | - |
| 1778118689 | 10.56° C | 61% | 1012.5 hPa | 0 mm | - | 0 W/m² | - |
| 1778118385 | 10.56° C | 61% | 1012.6 hPa | 0 mm | - | 0 W/m² | - |
| 1778118081 | 10.56° C | 59% | 1012.5 hPa | 0 mm | - | 0 W/m² | - |
| 1778117778 | 10.56° C | 58% | 1012.3 hPa | 0 mm | - | 0 W/m² | - |
| 1778117475 | 10.56° C | 57% | 1012.2 hPa | 0 mm | - | 0 W/m² | - |
| 1778117173 | 10.56° C | 58% | 1012.5 hPa | 0 mm | - | 0 W/m² | - |
| 1778116868 | 10.56° C | 59% | 1012.2 hPa | 0 mm | - | 0 W/m² | - |
| 1778116566 | 10.56° C | 55% | 1012.3 hPa | 0 mm | - | 0 W/m² | - |
| 1778116262 | 10.56° C | 59% | 1012.2 hPa | 0 mm | - | 0 W/m² | - |
| 1778115957 | 10.56° C | 58% | 1012.1 hPa | 0 mm | - | 0 W/m² | - |
| 1778115653 | 10.56° C | 61% | 1012 hPa | 0 mm | - | 0 W/m² | - |
| 1778115351 | 10.56° C | 57% | 1011.9 hPa | 0 mm | - | 0 W/m² | - |
| 1778115047 | 10.56° C | 58% | 1011.9 hPa | 0 mm | - | 0 W/m² | - |
* Rain latest hour (hover to see other rain measurements)
** Current wind speed in m/s (hover to see current wind gust speed)